Flag for Switzerland Weather past 2 weeks in Binningen, Basel-Land, Switzerland

Now
58 °F

Partly sunny.


Feels Like: 58 °F
Forecast: 34 / 54 °F
Wind: 1 mph from Northwest

Location: Bale-Mulhouse

Current Time: Oct 23, 2014 at 5:29:08 PM

Latest Report: Oct 23, 2014 at 4:00 PM


Visibility: 25 mi

Pressure: 30.26 "Hg

Humidity: 44%

Dew point: 36 °F

Location of BinningenLocation

Historic Weather in Binningen — Graph

°F

Binningen temperature yesterday

Maximum temperature yesterday: 49 °F (at 3:00 PM)
Minimum temperature yesterday: 42 °F (at 4:00 AM)
Average temperature yesterday: 46 °F

Past Weeks' High & Low Weather Summary

 TemperatureHumidityPressure
High76 °F (Oct 19, 4:00 PM)99% (Oct 12, 7:00 AM)30.33 "Hg (Oct 12, 7:00 AM)
Low42 °F (Oct 22, 4:00 AM)50% (Oct 19, 4:00 PM)29.74 "Hg (Oct 15, 5:00 PM)
Average58 °F86%29.98 "Hg
* Reported Oct 8 3:00 PM — Oct 23 3:00 PM, Binningen, Weather by CustomWeather, © 2014

Note: Actual official high and low records may vary slightly from our data, if they occured in-between our weather recording intervals... More about our weather records

Advertising

Binningen weather history for previous 24 hours

 ConditionsComfort  
Time TempWeatherWind HumidityBarometerVisibility
3:00 PM
Oct 23
57 °FPartly sunny.2 mph51%30.27 "Hg25 mi
2:00 PM53 °FPartly sunny.3 mph57%30.30 "Hg12 mi
1:00 PM53 °FPartly sunny.2 mph64%30.31 "Hg12 mi
12:00 PM53 °FPartly sunny.3 mph62%30.33 "Hg12 mi
11:00 AM51 °FPartly sunny.5 mph72%30.33 "Hg9 mi
10:00 AM47 °FPartly sunny.3 mph86%30.33 "Hg9 mi
9:00 AM45 °FOvercast.2 mph92%30.33 "Hg11 mi
8:00 AM45 °FLight rain. Low clouds.3 mph91%30.32 "Hg6 mi
7:00 AM46 °FOvercast.5 mph86%30.31 "Hg16 mi
6:00 AM46 °FOvercast.10 mph85%30.29 "Hg16 mi
5:00 AM46 °FOvercast.10 mph86%30.30 "Hg12 mi
4:00 AM46 °FLight rain. Overcast.10 mph85%30.30 "Hg19 mi
3:00 AM46 °FOvercast.10 mph83%30.29 "Hg28 mi
2:00 AM46 °FOvercast.13 mph85%30.28 "Hg22 mi
1:00 AM46 °FOvercast.14 mph87%30.28 "Hg12 mi
12:00 AM46 °FOvercast.15 mph80%30.28 "Hg19 mi
11:00 PM
Oct 22
46 °FOvercast.13 mph78%30.28 "Hg19 mi
10:00 PM46 °FOvercast.14 mph77%30.26 "Hg19 mi
9:00 PM46 °FOvercast.13 mph78%30.25 "Hg19 mi
8:00 PM46 °FPassing clouds.13 mph78%30.25 "Hg19 mi
7:00 PM47 °FOvercast.7 mph72%30.24 "Hg16 mi
6:00 PM48 °FOvercast.7 mph72%30.22 "Hg16 mi
5:00 PM48 °FOvercast.12 mph69%30.21 "Hg9 mi
Weather by CustomWeather, © 2014

See weather overviewHow to use our weather pages